This is the latest recevied weather packets stored in our database for station/object KF5JED-13. If no packets are shown the sender has not sent any weather packets the latest 10 day(s).
| Time | Temp. | Humidity | Pressure | Rain* | Wind** | Luminosity | Snow |
|---|---|---|---|---|---|---|---|
| 1777509256 | 18.89° C | 36% | 1015.1 hPa | 0 mm | - | 77 W/m² | - |
| 1777508953 | 19.44° C | 36% | 1015.1 hPa | 0 mm | - | 89 W/m² | - |
| 1777508650 | 19.44° C | 35% | 1015.3 hPa | 0 mm | - | 100 W/m² | - |
| 1777508348 | 19.44° C | 35% | 1015.2 hPa | 0 mm | - | 115 W/m² | - |
| 1777508045 | 19.44° C | 35% | 1015.1 hPa | 0 mm | - | 128 W/m² | - |
| 1777507741 | 19.44° C | 35% | 1015.1 hPa | 0 mm | - | 141 W/m² | - |
| 1777507438 | 20° C | 34% | 1015.3 hPa | 0 mm | - | 154 W/m² | - |
| 1777507135 | 20° C | 34% | 1015.1 hPa | 0 mm | - | 167 W/m² | - |
| 1777506833 | 20.56° C | 34% | 1015 hPa | 0 mm | - | 179 W/m² | - |
| 1777506530 | 20° C | 33% | 1014.9 hPa | 0 mm | - | 196 W/m² | - |
| 1777506225 | 20.56° C | 33% | 1014.7 hPa | 0 mm | - | 212 W/m² | - |
| 1777505922 | 20° C | 33% | 1014.9 hPa | 0 mm | - | 229 W/m² | - |
| 1777505617 | 20.56° C | 32% | 1014.7 hPa | 0 mm | - | 243 W/m² | - |
| 1777505314 | 20.56° C | 33% | 1014.8 hPa | 0 mm | - | 259 W/m² | - |
| 1777505011 | 20.56° C | 32% | 1014.8 hPa | 0 mm | - | 280 W/m² | - |
| 1777504702 | 20.56° C | 32% | 1014.8 hPa | 0 mm | - | 300 W/m² | - |
| 1777504400 | 20.56° C | 32% | 1014.8 hPa | 0 mm | - | 318 W/m² | - |
| 1777504095 | 20.56° C | 32% | 1014.8 hPa | 0 mm | - | 334 W/m² | - |
| 1777503790 | 21.11° C | 31% | 1014.8 hPa | 0 mm | - | 352 W/m² | - |
| 1777503487 | 21.11° C | 31% | 1014.9 hPa | 0 mm | - | 371 W/m² | - |
| 1777503183 | 21.11° C | 31% | 1015 hPa | 0 mm | - | 391 W/m² | - |
| 1777502880 | 21.11° C | 31% | 1014.8 hPa | 0 mm | - | 412 W/m² | - |
| 1777502578 | 21.11° C | 31% | 1014.6 hPa | 0 mm | - | 434 W/m² | - |
| 1777502269 | 21.11° C | 32% | 1014.5 hPa | 0 mm | - | 460 W/m² | - |
| 1777501966 | 21.11° C | 32% | 1014.6 hPa | 0 mm | - | 483 W/m² | - |
* Rain latest hour (hover to see other rain measurements)
** Current wind speed in m/s (hover to see current wind gust speed)